Weather History for Summerville, SC

Change the Weather History Date:

Saturday, November 9, 2013

  Actual Average (KCHS) Record (KCHS)
Temperature  
Mean Temperature 48 °F 60 °F  
Max Temperature 64 °F 72 °F 84 °F (1986)
Min Temperature 33 °F 49 °F 24 °F (1967)
Degree Days  
Heating Degree Days 16 6  
Month to date heating degree days 47  
Since 1 July heating degree days 116  
Cooling Degree Days 0 1  
Month to date cooling degree days 14  
Year to date cooling degree days 2278  
Moisture  
Dew Point 43 °F    
Average Humidity 84    
Maximum Humidity 100    
Minimum Humidity 49    
Precipitation  
Precipitation 0.00 in 0.09 in 3.50 in (1990)
Month to date precipitation 0.76  
Year to date precipitation 46.25  
Sea Level Pressure  
Sea Level Pressure 30.30 in    
Wind  
Wind Speed 1 mph (NNE)    
Max Wind Speed 8 mph    
Max Gust Speed -    
Visibility 10 miles    
Events      
T = Trace of Precipitation, MM = Missing Value Source: NWS Daily Summary

Daily Weather History Graph

Daily Weather History Graph

Search for Another Location

Airport:

Trip Planner

Search our weather history database for the weather conditions in past years. The results will help you decide how hot, cold, wet, or windy it might be!

Date:

Astronomy

Nov. 09, 2013 Rise Set
Actual Time 6:46 AM EST 5:22 PM EST
Civil Twilight 6:20 AM EST 5:48 PM EST
Nautical Twilight 5:50 AM EST 6:18 PM EST
Astronomical Twilight 5:21 AM EST 6:47 PM EST
Moon 12:25 PM EST (11/9) 11:46 PM EST (11/9)
Length of Visible Light 11h 28m
Length of Day
10h 36m
Waxing Crescent, 44% of the Moon is Illuminated
Nov 9
Waxing Crescent
Nov 10
First Quarter
Nov 17
Full
Nov 25
Last Quarter
Dec 2
New

Hourly Weather History & Observations

Time (EST) Temp. Windchill Dew Point Humidity Pressure Visibility Wind Dir Wind Speed Gust Speed Precip Events Conditions
12:15 AM 35.6 °F - 35.6 °F 100% 30.30 in 10.0 mi Calm Calm - N/A   Clear
12:35 AM 35.6 °F - 35.6 °F 100% 30.30 in 10.0 mi Calm Calm - N/A   Clear
12:55 AM 35.6 °F - 35.6 °F 100% 30.30 in 10.0 mi Calm Calm - N/A   Clear
1:15 AM 35.6 °F - 35.6 °F 100% 30.31 in 10.0 mi Calm Calm - N/A   Clear
1:35 AM 35.6 °F - 35.6 °F 100% 30.31 in 10.0 mi Calm Calm - N/A   Clear
1:55 AM 35.6 °F - 35.6 °F 100% 30.31 in 10.0 mi Calm Calm - N/A   Clear
2:15 AM 35.6 °F 32.8 °F 35.6 °F 100% 30.32 in 10.0 mi North 3.5 mph - N/A   Clear
2:35 AM 35.6 °F - 35.6 °F 100% 30.31 in 10.0 mi Calm Calm - N/A   Clear
2:55 AM 35.6 °F - 35.6 °F 100% 30.31 in 10.0 mi Calm Calm - N/A   Clear
3:15 AM 35.6 °F - 35.6 °F 100% 30.31 in 10.0 mi Calm Calm - N/A   Clear
3:35 AM 35.6 °F - 35.6 °F 100% 30.32 in 10.0 mi Calm Calm - N/A   Clear
3:55 AM 35.6 °F - 35.6 °F 100% 30.32 in 10.0 mi Calm Calm - N/A   Clear
4:15 AM 35.6 °F - 35.6 °F 100% 30.31 in 10.0 mi Calm Calm - N/A   Clear
4:35 AM 35.6 °F - 35.6 °F 100% 30.31 in 10.0 mi Calm Calm - N/A   Clear
4:55 AM 35.6 °F - 35.6 °F 100% 30.31 in 10.0 mi Calm Calm - N/A   Clear
5:15 AM 35.6 °F - 35.6 °F 100% 30.32 in 10.0 mi Calm Calm - N/A   Clear
5:35 AM 33.8 °F - 33.8 °F 100% 30.33 in 10.0 mi Calm Calm - N/A   Clear
5:55 AM 33.8 °F - 33.8 °F 100% 30.33 in 10.0 mi Calm Calm - N/A   Clear
6:15 AM 33.8 °F - 33.8 °F 100% 30.33 in 10.0 mi Calm Calm - N/A   Clear
6:35 AM 33.8 °F - 33.8 °F 100% 30.34 in 10.0 mi Calm Calm - N/A   Clear
6:55 AM 33.8 °F - 33.8 °F 100% 30.34 in 10.0 mi Calm Calm - N/A   Clear
7:15 AM 33.8 °F 30.8 °F 33.8 °F 100% 30.35 in 10.0 mi North 3.5 mph - N/A   Clear
7:35 AM 35.6 °F 32.8 °F 35.6 °F 100% 30.35 in 10.0 mi North 3.5 mph - N/A   Clear
7:55 AM 37.4 °F - 37.4 °F 100% 30.35 in 10.0 mi Calm Calm - N/A   Clear
8:15 AM 41.0 °F - 41.0 °F 100% 30.35 in 10.0 mi Calm Calm - N/A   Clear
8:35 AM 44.6 °F 43.1 °F 41.0 °F 87% 30.35 in 10.0 mi NNE 3.5 mph - N/A   Clear
8:55 AM 48.2 °F - 42.8 °F 82% 30.35 in 10.0 mi NNE 4.6 mph - N/A   Clear
9:15 AM 51.8 °F - 42.8 °F 71% 30.35 in 10.0 mi NNE 3.5 mph - N/A   Clear
9:35 AM 53.6 °F - 41.0 °F 62% 30.35 in 10.0 mi NNE 4.6 mph - N/A   Clear
9:55 AM 55.4 °F - 41.0 °F 58% 30.35 in 10.0 mi NNE 4.6 mph - N/A   Clear
10:15 AM 57.2 °F - 41.0 °F 55% 30.36 in 10.0 mi NNE 4.6 mph - N/A   Clear
10:35 AM 59.0 °F - 41.0 °F 51% 30.35 in 10.0 mi NNE 3.5 mph - N/A   Clear
10:55 AM 60.8 °F - 42.8 °F 52% 30.35 in 10.0 mi NNE 3.5 mph - N/A   Clear
11:15 AM 60.8 °F - 42.8 °F 52% 30.34 in 10.0 mi North 8.1 mph - N/A   Clear
11:35 AM 60.8 °F - 42.8 °F 52% 30.34 in 10.0 mi NNE 3.5 mph - N/A   Clear
11:55 AM 60.8 °F - 42.8 °F 52% 30.33 in 10.0 mi Calm Calm - N/A   Clear
12:15 PM 60.8 °F - 42.8 °F 52% 30.32 in 10.0 mi NNE 3.5 mph - N/A   Clear
12:35 PM 62.6 °F - 44.6 °F 52% 30.31 in 10.0 mi Calm Calm - N/A   Clear
12:55 PM 62.6 °F - 44.6 °F 52% 30.29 in 10.0 mi Calm Calm - N/A   Clear
1:15 PM 62.6 °F - 44.6 °F 52% 30.29 in 10.0 mi North 4.6 mph - N/A   Clear
1:35 PM 64.4 °F - 44.6 °F 49% 30.28 in 10.0 mi Calm Calm - N/A   Clear
1:55 PM 62.6 °F - 46.4 °F 55% 30.28 in 10.0 mi Calm Calm - N/A   Clear
2:15 PM 62.6 °F - 46.4 °F 55% 30.27 in 10.0 mi Calm Calm - N/A   Clear
2:35 PM 62.6 °F - 46.4 °F 55% 30.27 in 10.0 mi North 4.6 mph - N/A   Clear
2:55 PM 62.6 °F - 46.4 °F 55% 30.26 in 10.0 mi Calm Calm - N/A   Clear
3:15 PM 62.6 °F - 46.4 °F 55% 30.26 in 10.0 mi Calm Calm - N/A   Clear
3:35 PM 62.6 °F - 48.2 °F 59% 30.26 in 10.0 mi Calm Calm - N/A   Clear
4:15 PM 60.8 °F - 50.0 °F 68% 30.27 in 10.0 mi North 3.5 mph - N/A   Clear
4:35 PM 60.8 °F - 50.0 °F 68% 30.27 in 10.0 mi Calm Calm - N/A   Clear
4:55 PM 60.8 °F - 50.0 °F 68% 30.27 in 10.0 mi Calm Calm - N/A   Clear
5:15 PM 59.0 °F - 51.8 °F 77% 30.26 in 10.0 mi Calm Calm - N/A   Clear
5:35 PM 57.2 °F - 51.8 °F 82% 30.28 in 10.0 mi Calm Calm - N/A   Clear
5:55 PM 55.4 °F - 51.8 °F 88% 30.28 in 10.0 mi Calm Calm - N/A   Clear
6:15 PM 55.4 °F - 51.8 °F 88% 30.29 in 10.0 mi Calm Calm - N/A   Clear
6:35 PM 53.6 °F - 51.8 °F 94% 30.29 in 10.0 mi Calm Calm - N/A   Clear
6:55 PM 53.6 °F - 53.6 °F 100% 30.28 in 10.0 mi Calm Calm - N/A   Clear
7:15 PM 53.6 °F - 53.6 °F 100% 30.28 in 10.0 mi Calm Calm - N/A   Clear
7:35 PM 53.6 °F - 53.6 °F 100% 30.27 in 10.0 mi Calm Calm - N/A   Clear
7:55 PM 53.6 °F - 53.6 °F 100% 30.26 in 10.0 mi Calm Calm - N/A   Clear
8:15 PM 53.6 °F - 51.8 °F 94% 30.24 in 10.0 mi Calm Calm - N/A   Clear
8:35 PM 53.6 °F - 51.8 °F 94% 30.27 in 10.0 mi West 3.5 mph - N/A   Clear
9:35 PM 51.8 °F - 51.8 °F 100% 30.27 in 10.0 mi Calm Calm - N/A   Clear
9:55 PM 51.8 °F - 51.8 °F 100% 30.26 in 10.0 mi Calm Calm - N/A   Clear
10:15 PM 51.8 °F - 51.8 °F 100% 30.25 in 10.0 mi Calm Calm - N/A   Clear
10:35 PM 51.8 °F - 51.8 °F 100% 30.25 in 10.0 mi SSE 3.5 mph - N/A   Clear
10:55 PM 50.0 °F - 50.0 °F 100% 30.25 in 10.0 mi Calm Calm - N/A   Clear
11:15 PM 50.0 °F - 50.0 °F 100% 30.25 in 10.0 mi Calm Calm - N/A   Clear
11:35 PM 50.0 °F - 50.0 °F 100% 30.25 in 10.0 mi Calm Calm - N/A   Clear
11:55 PM 50.0 °F - 50.0 °F 100% 30.25 in 10.0 mi Calm Calm - N/A   Scattered Clouds